Location: Champignolles
(47.0543°N, 4.5663°E)
Time: 00:20:43
(UTC+00:00)

N. Korean satellite - Pass Details

Date: 07 December 2021
Orbit: 447 x 491 km, 97.3° (Epoch: 21 January)

Event Time Altitude Azimuth Distance (km) Brightness Sun altitude
Rises 04:57:31 0° 13° (NNE) 2,465 10.2 -22.3°
Reaches altitude 10° 04:59:34 10° 16° (NNE) 1,585 9.2 -21.9°
Maximum altitude 05:02:57 76° 102° (ESE) 468 6.5 -21.4°
Drops below altitude 10° 05:06:19 10° 188° (S) 1,571 9.2 -20.8°
Sets 05:08:20 0° 190° (S) 2,440 10.2 -20.5°
